DateTimeUTC,F1_A11,F1_S11,BsB_S11,BsG_S11,BsR_S11,BbsB_S11,BbsG_S11,BbsR_S11,BaB_A11,BaG_A11,BaR_A11,Tu_S11,T_S11,Uu_S11,U_S11,P_S11,T1_A11
2021-11-13T11:00:00Z,00000200,21000000,,,,,,,0000.04,0000.21,0000.13,13.9,20.8,,00.0,0644.6,30.5
2021-11-13T11:01:00Z,00000200,21000000,,,,,,,0000.18,-000.37,-000.20,13.9,20.8,,00.0,0644.6,30.5
2021-11-13T11:02:00Z,00000200,21000000,,,,,,,0000.09,0000.21,0000.10,13.9,20.8,,00.0,0644.6,30.5
2021-11-13T11:03:00Z,00000200,61000000,,,,,,,0000.04,0000.04,0000.42,13.9,20.8,,00.0,0644.6,30.5
2021-11-13T11:04:00Z,00000200,41000000,-000.33,0000.22,0000.21,-000.12,0000.26,-000.12,0000.06,0000.04,-000.33,14.1,20.6,,00.0,0645.5,30.5
2021-11-13T11:05:00Z,00000200,01000000,-000.50,0000.21,0000.13,-000.73,0000.13,0000.26,-000.13,0000.26,0000.06,14.2,20.6,,00.0,0645.6,30.5
2021-11-13T11:06:00Z,00000200,01000000,-000.13,0000.30,0000.02,-000.32,0000.37,-000.04,0000.49,0000.18,0000.46,14.2,20.6,,00.0,0645.6,30.5
2021-11-13T11:07:00Z,00000200,01000000,0000.06,0000.11,-000.15,-000.66,0000.01,-000.43,0000.12,0000.31,0000.15,14.2,20.6,,00.0,0645.6,30.5
2021-11-13T11:08:00Z,00000200,01000000,-000.10,-000.25,0000.13,-000.53,0000.23,0000.09,0000.11,0000.06,-000.07,14.2,20.5,,00.0,0645.6,30.5
2021-11-13T11:09:00Z,00000200,01000000,0000.64,0000.25,-000.05,-000.40,0000.15,-000.03,0000.07,0000.30,0000.33,14.3,20.5,,00.0,0645.5,30.5
2021-11-13T11:10:00Z,00000200,01000000,0000.02,0000.27,0000.02,-000.10,0000.05,0000.13,0000.24,0000.07,0000.03,14.3,20.5,,00.0,0645.5,30.5
2021-11-13T11:11:00Z,00000200,01000000,-000.13,0000.47,0000.22,-000.54,0000.15,0000.12,0000.11,-000.06,-000.04,14.3,20.5,,00.0,0645.5,30.5
2021-11-13T11:12:00Z,00000200,01000000,-000.14,0000.29,0000.05,0000.22,0000.56,-000.17,0000.30,0000.23,0000.22,14.3,20.5,,00.0,0645.5,30.5
2021-11-13T11:13:00Z,00000200,01000000,-000.25,0000.31,-000.07,0000.19,0000.59,-000.36,-000.10,0000.26,0000.03,14.3,20.6,,00.0,0645.5,30.5
2021-11-13T11:14:00Z,00000200,01000000,0000.81,0000.30,0000.27,-000.43,0000.25,0000.08,0000.55,0000.14,0000.16,14.3,20.5,,00.0,0645.5,30.5
2021-11-13T11:15:00Z,00000200,01000000,-000.34,-000.08,0000.16,0000.17,0000.23,0000.16,0000.26,0000.24,0000.37,14.3,20.5,,00.0,0645.5,30.5
2021-11-13T11:16:00Z,00000200,01000000,-000.32,0000.23,0000.08,0000.80,0000.01,-000.01,-000.25,0000.16,-000.16,14.3,20.6,,00.0,0645.5,30.5
2021-11-13T11:17:00Z,00000200,01000000,-000.52,0000.40,0000.24,-000.09,0000.20,0000.15,0000.36,-000.19,0000.28,14.3,20.6,,00.0,0645.5,30.5
2021-11-13T11:18:00Z,00000200,01000000,-000.00,0000.44,0000.03,-000.05,-000.06,-000.17,0000.09,0000.24,0000.22,14.3,20.6,,00.0,0645.4,30.5
2021-11-13T11:19:00Z,00000200,01000000,0001.16,0000.29,0000.25,-000.01,0000.35,-000.07,-000.02,0000.36,0000.18,14.3,20.6,,00.0,0645.4,30.5
2021-11-13T11:20:00Z,00000200,01000000,0000.69,0000.50,0000.19,-000.05,0000.08,-000.08,0000.28,0000.43,-000.10,14.3,20.5,,00.0,0645.4,30.5
2021-11-13T11:21:00Z,00000200,01000000,-000.40,0000.30,0000.17,-000.07,0000.09,0000.05,0000.09,-000.40,0000.47,14.3,20.6,,00.0,0645.4,30.5
2021-11-13T11:22:00Z,00000200,01000000,-000.65,0000.22,-000.01,-000.48,0000.16,-000.04,0000.24,0000.16,-000.29,14.3,20.6,,00.0,0645.4,30.5
2021-11-13T11:23:00Z,00000200,01000000,-000.78,0000.25,-000.12,-000.37,0000.33,0000.05,0000.18,0000.31,-000.01,14.3,20.6,,00.0,0645.4,30.5
2021-11-13T11:24:00Z,00000200,01000000,0000.09,0000.18,-000.34,0000.38,0000.12,-000.06,0000.21,-000.04,0000.15,14.3,20.6,,00.0,0645.4,30.5
2021-11-13T11:25:00Z,00000200,01000000,0000.35,0000.29,0000.22,0000.06,0000.49,-000.24,0000.11,0000.15,0000.52,14.3,20.6,,00.0,0645.4,30.5
2021-11-13T11:26:00Z,00000200,01000000,0000.15,0000.33,0000.04,0000.10,-000.20,-000.03,0000.16,-000.02,0000.36,14.3,20.6,,00.0,0645.4,30.5
2021-11-13T11:27:00Z,00000200,01000000,-000.24,0000.21,0000.08,-000.57,0000.07,0000.14,-000.35,0000.53,-000.51,14.3,20.6,,00.0,0645.4,30.5
2021-11-13T11:28:00Z,00000200,01000000,0000.15,-000.10,0000.10,-000.25,0000.02,-000.26,0000.60,0000.30,0000.71,14.3,20.6,,00.0,0645.4,30.5
2021-11-13T11:29:00Z,00000200,01000000,0000.29,-000.10,0000.17,-000.15,0000.04,0000.20,0000.16,-000.02,0000.07,14.3,20.6,,00.0,0645.3,30.5
2021-11-13T11:30:00Z,00000200,01000000,-000.20,-000.00,-000.04,-000.63,-000.09,-000.26,0000.55,0000.41,0000.33,14.4,20.6,,00.0,0645.3,30.5
2021-11-13T11:31:00Z,00000200,01000000,-000.68,0000.18,-000.10,0000.26,0000.16,0000.06,-000.34,0000.23,0000.03,14.3,20.6,,00.0,0645.3,30.5
2021-11-13T11:32:00Z,00000200,01000000,-000.11,0000.13,-000.00,-000.65,0000.28,0000.13,0000.64,0000.31,0000.45,14.4,20.6,,00.0,0645.3,30.5
2021-11-13T11:33:00Z,00000200,01000000,0000.03,0000.09,-000.17,-000.13,0000.17,-000.03,0000.48,0000.19,0000.10,14.4,20.6,,00.0,0645.3,30.5
2021-11-13T11:34:00Z,00000200,01000000,0000.13,-000.06,-000.03,-000.21,0000.13,0000.13,-000.12,0000.26,-000.08,14.4,20.6,,00.0,0645.3,30.5
2021-11-13T11:35:00Z,00000200,01000000,0000.31,-000.11,0000.20,-000.39,-000.06,0000.09,0000.19,-000.07,0000.03,14.4,20.6,,00.0,0645.3,30.5
2021-11-13T11:36:00Z,00000200,01000000,0000.35,-000.08,0000.21,-000.23,0000.09,0000.18,0000.11,-000.05,0000.07,14.4,20.6,,00.0,0645.3,30.5
2021-11-13T11:37:00Z,00000200,01000000,-001.29,-000.09,-000.10,-000.09,0000.13,-000.05,-000.29,-000.09,0000.17,14.4,20.6,,00.0,0645.2,30.5
2021-11-13T11:38:00Z,00000200,01000000,0000.16,0000.08,-000.25,0000.59,0000.03,-000.21,0000.04,0000.29,-000.11,14.4,20.6,,00.0,0645.2,30.5
2021-11-13T11:39:00Z,00000200,01000000,-000.14,0000.06,0000.29,0000.09,0000.43,0000.15,0000.26,-000.20,0000.38,14.4,20.6,,00.0,0645.2,30.5
2021-11-13T11:40:00Z,00000200,01000000,-000.79,-000.14,0000.22,0000.08,0000.30,0000.05,0000.13,0000.49,0000.01,14.4,20.6,,00.0,0645.2,30.5
2021-11-13T11:41:00Z,00000200,01000000,0000.03,0000.20,0000.10,-000.50,-000.03,0000.11,0000.30,-000.11,-000.23,14.4,20.6,,00.0,0645.2,30.5
2021-11-13T11:42:00Z,00000200,01000000,-000.06,0000.26,-000.02,-000.65,-000.18,-000.02,-000.08,0000.17,0000.05,14.4,20.6,,00.0,0645.2,30.5
2021-11-13T11:43:00Z,00000200,01000000,-000.24,0000.09,-000.12,-000.69,-000.08,-000.16,0000.07,0000.17,0000.60,14.4,20.6,,00.0,0645.1,30.5
2021-11-13T11:44:00Z,00000200,01000000,-000.49,0000.29,0000.07,-000.01,0000.19,0000.21,-000.02,-000.22,-000.37,14.4,20.6,,00.0,0645.1,30.5
2021-11-13T11:45:00Z,00000200,01000000,0000.07,0000.08,-000.25,0000.37,-000.15,0000.05,0000.40,0000.38,0000.62,14.4,20.6,,00.0,0645.1,30.5
2021-11-13T11:46:00Z,00000200,01000000,0000.10,-000.23,0000.08,-000.46,0000.05,0000.13,-000.09,0000.27,-000.30,14.4,20.6,,00.0,0645.1,30.5
2021-11-13T11:47:00Z,00000200,01000000,0000.13,0000.08,0000.18,0000.13,0000.42,0000.18,0000.36,0000.13,0000.59,14.3,20.6,,00.0,0645.1,30.5
2021-11-13T11:48:00Z,00000200,01000000,-000.56,0000.08,0000.15,0000.20,0000.11,0000.16,-000.01,-000.28,-000.33,14.3,20.6,,00.0,0645.1,30.5
2021-11-13T11:49:00Z,00000200,01000000,-000.26,0000.12,-000.06,-000.32,0000.08,-000.07,-000.01,0000.59,0000.15,14.3,20.6,,00.0,0645.1,30.5
2021-11-13T11:50:00Z,00000200,01000000,-000.06,-000.08,0000.07,-000.60,0000.11,-000.12,0000.26,-000.06,0000.29,14.3,20.7,,00.0,0645.1,30.5
2021-11-13T11:51:00Z,00000200,01000000,-000.09,0000.02,0000.15,-000.33,-000.01,0000.45,0000.60,0000.71,0000.16,14.3,20.7,,00.0,0645.1,30.5
2021-11-13T11:52:00Z,00000200,01000000,-000.43,0000.07,0000.24,0000.12,0000.27,0000.03,-000.16,-000.25,0000.34,14.3,20.7,,00.0,0645.1,30.5
2021-11-13T11:53:00Z,00000200,01000000,0008.87,0008.88,0009.48,0001.80,0001.80,0002.02,0031.40,0031.70,0031.58,14.3,20.7,,00.0,0644.6,30.5
2021-11-13T11:54:00Z,00000200,01000000,-000.17,0000.48,0000.25,-000.63,-000.06,-000.14,0001.06,0001.22,0001.72,14.3,20.7,,00.0,0644.2,30.5
2021-11-13T11:55:00Z,00000200,01000000,0000.15,0000.22,0000.12,-000.15,-000.20,-000.15,0000.23,0000.26,0000.18,14.3,20.7,,00.0,0644.2,30.5
2021-11-13T11:56:00Z,00000200,01000000,-000.06,0000.12,0000.08,0000.05,0000.14,-000.14,-000.02,0000.04,-000.13,14.3,20.7,,00.0,0644.2,30.5
2021-11-13T11:57:00Z,00000200,41000000,,,,,,,-000.70,-000.96,-000.69,14.3,20.7,,00.0,0644.1,30.5
2021-11-13T11:58:00Z,00000200,61000000,,,,,,,0000.60,0000.27,0000.28,14.0,20.8,,00.0,0643.2,30.5
2021-11-13T11:59:00Z,00000200,21000000,,,,,,,-000.10,0000.47,0000.22,13.9,20.9,,00.0,0643.2,30.5
